Flag for Angola Weather past 2 weeks in Luanda, Angola

Now
81 °F

Broken clouds.


Feels Like: 84 °F
Forecast: 74 / 82 °F
Wind: 12 mph from West

Location: Luanda Airport

Current Time: Oct 24, 2014 at 2:45:16 PM

Latest Report: Oct 24, 2014 at 2:00 PM


Visibility: N/A

Pressure: 29.89 "Hg

Humidity: 70%

Dew point: 70 °F

Location of LuandaLocation

Historic Weather in Luanda — Graph

°F

Luanda temperature yesterday

Maximum temperature yesterday: 82 °F (at 10:00 AM)
Minimum temperature yesterday: 75 °F (at 4:00 AM)
Average temperature yesterday: 79 °F

Past Weeks' High & Low Weather Summary

 TemperatureHumidityPressure
High84 °F (Oct 19, 1:00 PM)94% (Oct 11, 6:00 AM)30.01 "Hg (Oct 11, 6:00 AM)
Low70 °F (Oct 10, 4:00 AM)58% (Oct 19, 1:00 PM)29.80 "Hg (Oct 9, 4:00 PM)
Average76 °F78%29.92 "Hg
* Reported Oct 9 1:00 PM — Oct 24 1:00 PM, Luanda, Weather by CustomWeather, © 2014

Note: Actual official high and low records may vary slightly from our data, if they occured in-between our weather recording intervals... More about our weather records

Advertising

Luanda weather history for previous 24 hours

 ConditionsComfort  
Time TempWeatherWind HumidityBarometerVisibility
1:00 PM
Oct 24
79 °FOvercast.3 mph94%29.95 "HgN/A
10:00 AM81 °FBroken clouds.5 mph70%29.95 "HgN/A
9:00 AM81 °FBroken clouds.6 mph70%29.98 "HgN/A
8:00 AM77 °FBroken clouds.5 mph79%29.95 "HgN/A
7:00 AM75 °FMore clouds than sun.3 mph89%29.95 "Hg6 mi
6:00 AM73 °FOvercast.6 mph94%29.92 "Hg6 mi
5:00 AM73 °FOvercast.5 mph94%29.89 "Hg6 mi
4:00 AM75 °FDrizzle. Mostly cloudy.6 mph89%29.89 "HgN/A
3:00 AM75 °FPassing clouds.8 mph83%29.89 "HgN/A
2:00 AM77 °FPassing clouds.6 mph79%29.89 "HgN/A
1:00 AM77 °FPassing clouds.9 mph79%29.89 "HgN/A
12:00 AM77 °FPassing clouds.3 mph79%29.89 "HgN/A
11:00 PM
Oct 23
77 °FPassing clouds.3 mph79%29.92 "HgN/A
10:00 PM77 °FPassing clouds.7 mph79%29.92 "HgN/A
9:00 PM77 °FPassing clouds.7 mph79%29.92 "HgN/A
8:00 PM77 °FPassing clouds.9 mph79%29.89 "HgN/A
7:00 PM77 °FPassing clouds.10 mph79%29.86 "HgN/A
6:00 PM77 °FScattered clouds.12 mph79%29.83 "HgN/A
3:00 PM82 °FSunny.12 mph66%29.83 "Hg10 mi
2:00 PM82 °FSunny.10 mph66%29.86 "Hg10 mi
Weather by CustomWeather, © 2014

See weather overviewHow to use our weather pages